| time (UTC) | temp F | wind direction | speed knots | gust knots | rain 1hr in | rain 24hr in | rain mn in | humidity % | barometer mb |
| 20260502234945 | 67 | 333 | 12.2 | 14.8 | 0.00 | 0.00 | 0.00 | 39 | 1010.6 |
| 20260502234441 | 68 | 303 | 10.4 | 13.0 | 0.00 | 0.00 | 0.00 | 39 | 1010.6 |
| 20260502233938 | 68 | 327 | 10.4 | 12.2 | 0.00 | 0.00 | 0.00 | 38 | 1010.5 |
| 20260502233433 | 68 | 316 | 14.8 | 19.1 | 0.00 | 0.00 | 0.00 | 38 | 1010.7 |
| 20260502232931 | 68 | 327 | 12.2 | 14.8 | 0.00 | 0.00 | 0.00 | 39 | 1010.3 |
| 20260502232427 | 68 | 331 | 12.2 | 14.8 | 0.00 | 0.00 | 0.00 | 38 | 1010.4 |
| 20260502231924 | 68 | 304 | 9.6 | 13.9 | 0.00 | 0.00 | 0.00 | 38 | 1010.3 |
| 20260502231421 | 68 | 326 | 7.8 | 8.7 | 0.00 | 0.00 | 0.00 | 38 | 1010.2 |
| 20260502230919 | 68 | 337 | 13.9 | 18.2 | 0.00 | 0.00 | 0.00 | 37 | 1010.1 |
| 20260502230417 | 69 | 291 | 17.4 | 21.7 | 0.00 | 0.00 | 0.00 | 36 | 1010.2 |
| 20260502225915 | 68 | 306 | 16.5 | 19.1 | 0.00 | 0.00 | 0.00 | 35 | 1010.2 |
| 20260502225411 | 68 | 352 | 8.7 | 11.3 | 0.00 | 0.00 | 0.00 | 35 | 1010.2 |
| 20260502224908 | 68 | 306 | 16.5 | 20.0 | 0.00 | 0.00 | 0.00 | 34 | 1010.2 |
| 20260502224403 | 69 | 279 | 9.6 | 12.2 | 0.00 | 0.00 | 0.00 | 34 | 1010.0 |
| 20260502223901 | 69 | 291 | 13.0 | 17.4 | 0.00 | 0.00 | 0.00 | 34 | 1010.3 |
| 20260502223358 | 69 | 299 | 11.3 | 15.6 | 0.00 | 0.00 | 0.00 | 34 | 1010.0 |
| 20260502222856 | 69 | 329 | 10.4 | 14.8 | 0.00 | 0.00 | 0.00 | 34 | 1010.1 |
| 20260502222348 | 69 | 319 | 7.8 | 11.3 | 0.00 | 0.00 | 0.00 | 34 | 1010.2 |
| 20260502221843 | 69 | 305 | 12.2 | 14.8 | 0.00 | 0.00 | 0.00 | 34 | 1010.1 |
| 20260502221340 | 69 | 288 | 14.8 | 18.2 | 0.00 | 0.00 | 0.00 | 34 | 1010.0 |
| 20260502220837 | 69 | 328 | 10.4 | 13.9 | 0.00 | 0.00 | 0.00 | 35 | 1010.0 |
| 20260502220333 | 69 | 305 | 13.0 | 17.4 | 0.00 | 0.00 | 0.00 | 36 | 1010.2 |
| 20260502215830 | 70 | 337 | 14.8 | 19.1 | 0.00 | 0.00 | 0.00 | 36 | 1010.1 |
| 20260502215328 | 70 | 347 | 14.8 | 25.2 | 0.00 | 0.00 | 0.00 | 36 | 1010.1 |
| 20260502214824 | 71 | 307 | 14.8 | 19.1 | 0.00 | 0.00 | 0.00 | 34 | 1010.0 |
| 20260502214320 | 71 | 305 | 11.3 | 13.9 | 0.00 | 0.00 | 0.00 | 34 | 1009.9 |
| 20260502213818 | 71 | 295 | 7.8 | 8.7 | 0.00 | 0.00 | 0.00 | 34 | 1009.8 |
| 20260502213315 | 71 | 316 | 12.2 | 14.8 | 0.00 | 0.00 | 0.00 | 34 | 1009.9 |
| 20260502212814 | 71 | 309 | 13.0 | 14.8 | 0.00 | 0.00 | 0.00 | 34 | 1010.0 |
| 20260502212312 | 70 | 321 | 11.3 | 13.0 | 0.00 | 0.00 | 0.00 | 34 | 1010.0 |
| 20260502211808 | 71 | 315 | 13.0 | 18.2 | 0.00 | 0.00 | 0.00 | 34 | 1010.0 |
| 20260502211258 | 71 | 293 | 13.0 | 17.4 | 0.00 | 0.00 | 0.00 | 33 | 1009.9 |
| 20260502210755 | 71 | 307 | 15.6 | 21.7 | 0.00 | 0.00 | 0.00 | 33 | 1010.0 |
| 20260502210253 | 71 | 335 | 13.0 | 18.2 | 0.00 | 0.00 | 0.00 | 32 | 1009.9 |
| 20260502205750 | 71 | 313 | 18.2 | 25.2 | 0.00 | 0.00 | 0.00 | 31 | 1010.1 |
| 20260502205240 | 71 | 324 | 14.8 | 19.1 | 0.00 | 0.00 | 0.00 | 31 | 1009.9 |
| 20260502204738 | 71 | 307 | 11.3 | 14.8 | 0.00 | 0.00 | 0.00 | 33 | 1009.9 |
| 20260502204234 | 71 | 274 | 13.9 | 17.4 | 0.00 | 0.00 | 0.00 | 31 | 1010.1 |
| 20260502203726 | 71 | 271 | 11.3 | 13.9 | 0.00 | 0.00 | 0.00 | 32 | 1010.1 |
| 20260502203224 | 71 | 281 | 16.5 | 19.1 | 0.00 | 0.00 | 0.00 | 32 | 1010.2 |
| 20260502202718 | 71 | 296 | 8.7 | 12.2 | 0.00 | 0.00 | 0.00 | 34 | 1010.3 |
| 20260502202217 | 69 | 309 | 10.4 | 14.8 | 0.00 | 0.00 | 0.00 | 36 | 1010.2 |
| 20260502201714 | 71 | 302 | 13.0 | 17.4 | 0.00 | 0.00 | 0.00 | 35 | 1010.3 |
| 20260502201210 | 71 | 312 | 10.4 | 13.0 | 0.00 | 0.00 | 0.00 | 37 | 1010.3 |
| 20260502200705 | 70 | 341 | 13.0 | 14.8 | 0.00 | 0.00 | 0.00 | 37 | 1010.3 |
| 20260502200203 | 70 | 282 | 13.9 | 15.6 | 0.00 | 0.00 | 0.00 | 37 | 1010.6 |
| 20260502195701 | 69 | 287 | 13.0 | 15.6 | 0.00 | 0.00 | 0.00 | 37 | 1010.6 |
| 20260502195157 | 71 | 313 | 8.7 | 9.6 | 0.00 | 0.00 | 0.00 | 37 | 1010.3 |
| 20260502194654 | 71 | 332 | 14.8 | 18.2 | 0.00 | 0.00 | 0.00 | 35 | 1010.6 |
| 20260502194150 | 71 | 292 | 11.3 | 14.8 | 0.00 | 0.00 | 0.00 | 37 | 1010.7 |
| 20260502193646 | 70 | 314 | 8.7 | 12.2 | 0.00 | 0.00 | 0.00 | 38 | 1010.6 |
| 20260502193139 | 70 | 292 | 12.2 | 14.8 | 0.00 | 0.00 | 0.00 | 37 | 1010.7 |
| 20260502192633 | 69 | 291 | 13.0 | 14.8 | 0.00 | 0.00 | 0.00 | 38 | 1010.6 |
| 20260502192131 | 71 | 328 | 8.7 | 11.3 | 0.00 | 0.00 | 0.00 | 36 | 1010.8 |
| 20260502191628 | 70 | 328 | 9.6 | 12.2 | 0.00 | 0.00 | 0.00 | 38 | 1010.9 |
| 20260502191126 | 70 | 325 | 9.6 | 12.2 | 0.00 | 0.00 | 0.00 | 37 | 1011.1 |
| 20260502190623 | 69 | 326 | 7.8 | 11.3 | 0.00 | 0.00 | 0.00 | 38 | 1010.7 |
| 20260502190120 | 68 | 307 | 5.2 | 6.1 | 0.00 | 0.00 | 0.00 | 38 | 1010.8 |
| 20260502185614 | 70 | 334 | 10.4 | 12.2 | 0.00 | 0.00 | 0.00 | 36 | 1010.9 |
| 20260502185112 | 69 | 357 | 10.4 | 12.2 | 0.00 | 0.00 | 0.00 | 37 | 1011.1 |
| 20260502184609 | 68 | 0 | 7.8 | 9.6 | 0.00 | 0.00 | 0.00 | 39 | 1011.1 |
| 20260502184104 | 68 | 329 | 7.8 | 8.7 | 0.00 | 0.00 | 0.00 | 39 | 1011.1 |
| 20260502183600 | 69 | 348 | 8.7 | 12.2 | 0.00 | 0.00 | 0.00 | 37 | 1011.3 |
| 20260502183057 | 68 | 317 | 7.0 | 7.8 | 0.00 | 0.00 | 0.00 | 40 | 1011.3 |
| 20260502182552 | 69 | 330 | 6.1 | 7.0 | 0.00 | 0.00 | 0.00 | 39 | 1011.1 |
| 20260502182048 | 68 | 314 | 4.3 | 6.1 | 0.00 | 0.00 | 0.00 | 40 | 1011.5 |
| 20260502181546 | 68 | 293 | 9.6 | 11.3 | 0.00 | 0.00 | 0.00 | 39 | 1011.5 |
| 20260502181044 | 68 | 310 | 9.6 | 11.3 | 0.00 | 0.00 | 0.00 | 39 | 1011.3 |
| 20260502180541 | 67 | 273 | 4.3 | 5.2 | 0.00 | 0.00 | 0.00 | 39 | 1011.7 |
| 20260502170454 | 63 | 219 | 9.6 | 9.6 | 0.00 | 0.00 | 0.00 | 41 | 1012.2 |
| 20260502163937 | 64 | 289 | 7.0 | 7.8 | 0.00 | 0.00 | 0.00 | 41 | 1012.4 |
| 20260502163434 | 64 | 293 | 7.8 | 9.6 | 0.00 | 0.00 | 0.00 | 39 | 1012.2 |
| 20260502162931 | 64 | 281 | 7.8 | 11.3 | 0.00 | 0.00 | 0.00 | 43 | 1012.2 |
| 20260502162429 | 64 | 232 | 8.7 | 12.2 | 0.00 | 0.00 | 0.00 | 40 | 1012.2 |
| 20260502161926 | 63 | 213 | 9.6 | 11.3 | 0.00 | 0.00 | 0.00 | 40 | 1012.2 |
| 20260502161421 | 62 | 242 | 9.6 | 13.0 | 0.00 | 0.00 | 0.00 | 40 | 1012.2 |
| 20260502160919 | 63 | 230 | 10.4 | 13.0 | 0.00 | 0.00 | 0.00 | 40 | 1012.2 |
| 20260502160417 | 62 | 193 | 7.8 | 8.7 | 0.00 | 0.00 | 0.00 | 41 | 1012.4 |
| 20260502151856 | 59 | 211 | 7.0 | 9.6 | 0.00 | 0.00 | 0.00 | 46 | 1012.6 |
| 20260502151352 | 59 | 206 | 8.7 | 9.6 | 0.00 | 0.00 | 0.00 | 45 | 1012.6 |
| 20260502150850 | 57 | 189 | 6.1 | 7.8 | 0.00 | 0.00 | 0.00 | 47 | 1012.9 |
| 20260502150346 | 57 | 204 | 7.0 | 12.2 | 0.00 | 0.00 | 0.00 | 48 | 1012.9 |
| 20260502130734 | 47 | 151 | 1.7 | 1.7 | 0.00 | 0.00 | 0.00 | 58 | 1015.6 |
| 20260502130232 | 47 | 173 | 0.9 | 0.9 | 0.00 | 0.00 | 0.00 | 56 | 1015.8 |
| 20260502123718 | 47 | 205 | 4.3 | 5.2 | 0.00 | 0.00 | 0.00 | 54 | 1015.4 |
| 20260502123214 | 47 | 222 | 7.0 | 7.8 | 0.00 | 0.00 | 0.00 | 54 | 1015.1 |
| 20260502122711 | 47 | 223 | 4.3 | 6.1 | 0.00 | 0.00 | 0.00 | 55 | 1015.4 |
| 20260502122207 | 46 | 214 | 5.2 | 5.2 | 0.00 | 0.00 | 0.00 | 55 | 1015.6 |
| 20260502121706 | 46 | 179 | 5.2 | 6.1 | 0.00 | 0.00 | 0.00 | 55 | 1015.8 |
| 20260502121203 | 46 | 201 | 4.3 | 5.2 | 0.00 | 0.00 | 0.00 | 56 | 1015.5 |
| 20260502120659 | 46 | 188 | 4.3 | 7.0 | 0.00 | 0.00 | 0.00 | 56 | 1015.7 |
| 20260502120156 | 46 | 207 | 3.5 | 4.3 | 0.00 | 0.00 | 0.00 | 56 | 1015.8 |
| 20260502115654 | 46 | 206 | 3.5 | 5.2 | 0.00 | 0.00 | 0.00 | 56 | 1015.7 |
| 20260502115150 | 46 | 215 | 4.3 | 6.1 | 0.00 | 0.00 | 0.00 | 56 | 1015.9 |
| 20260502114646 | 45 | 201 | 5.2 | 6.1 | 0.00 | 0.00 | 0.00 | 57 | 1015.9 |
| 20260502114144 | 44 | 174 | 2.6 | 2.6 | 0.00 | 0.00 | 0.00 | 58 | 1016.0 |
| 20260502113641 | 44 | 201 | 2.6 | 2.6 | 0.00 | 0.00 | 0.00 | 58 | 1015.9 |
| 20260502113139 | 44 | 213 | 2.6 | 2.6 | 0.00 | 0.00 | 0.00 | 58 | 1016.1 |
| 20260502112636 | 43 | 194 | 2.6 | 2.6 | 0.00 | 0.00 | 0.00 | 59 | 1016.2 |
| 20260502112128 | 43 | 192 | 1.7 | 1.7 | 0.00 | 0.00 | 0.00 | 59 | 1016.2 |
| 20260502111625 | 42 | 222 | 4.3 | 5.2 | 0.00 | 0.00 | 0.00 | 59 | 1016.2 |
| 20260502111123 | 41 | 197 | 0.9 | 1.7 | 0.00 | 0.00 | 0.00 | 62 | 1016.2 |
| 20260502110620 | 41 | 180 | 0.9 | 0.9 | 0.00 | 0.00 | 0.00 | 61 | 1016.3 |
| 20260502110117 | 41 | 181 | 1.7 | 2.6 | 0.00 | 0.00 | 0.00 | 61 | 1016.3 |
| 20260502105615 | 42 | 184 | 1.7 | 1.7 | 0.00 | 0.00 | 0.00 | 61 | 1016.4 |
| 20260502105112 | 42 | 171 | 0.9 | 0.9 | 0.00 | 0.00 | 0.00 | 60 | 1016.4 |
| 20260502104609 | 43 | 204 | 0.9 | 0.9 | 0.00 | 0.00 | 0.00 | 59 | 1016.3 |
| 20260502104106 | 42 | 196 | 0.9 | 0.9 | 0.00 | 0.00 | 0.00 | 59 | 1016.4 |
| 20260502103604 | 42 | 170 | 0.9 | 0.9 | 0.00 | 0.00 | 0.00 | 60 | 1016.4 |
| 20260502103102 | 42 | 155 | 0.0 | 0.9 | 0.00 | 0.00 | 0.00 | 60 | 1016.1 |
| 20260502102558 | 42 | 177 | 0.9 | 0.9 | 0.00 | 0.00 | 0.00 | 60 | 1016.3 |
| 20260502102055 | 42 | 175 | 0.9 | 0.9 | 0.00 | 0.00 | 0.00 | 60 | 1016.1 |
| 20260502101553 | 42 | 192 | 0.9 | 0.9 | 0.00 | 0.00 | 0.00 | 60 | 1016.3 |
| 20260502101051 | 42 | 198 | 1.7 | 1.7 | 0.00 | 0.00 | 0.00 | 60 | 1016.4 |
| 20260502100549 | 42 | 168 | 0.9 | 0.9 | 0.00 | 0.00 | 0.00 | 60 | 1016.4 |
| 20260502091524 | 42 | 133 | 0.0 | 0.0 | 0.00 | 0.00 | 0.00 | 61 | 1016.1 |
| 20260502091021 | 42 | 247 | 1.7 | 1.7 | 0.00 | 0.00 | 0.00 | 61 | 1016.6 |
| 20260502090518 | 42 | 178 | 0.9 | 0.9 | 0.00 | 0.00 | 0.00 | 60 | 1016.4 |
| 20260502071407 | 44 | 198 | 0.9 | 0.9 | 0.00 | 0.00 | 0.00 | 57 | 1017.5 |
| 20260502070905 | 44 | 189 | 0.9 | 0.9 | 0.00 | 0.00 | 0.00 | 57 | 1017.8 |
| 20260502070402 | 44 | 249 | 0.9 | 1.7 | 0.00 | 0.00 | 0.00 | 56 | 1017.6 |
| 20260502065901 | 44 | 181 | 0.9 | 0.9 | 0.00 | 0.00 | 0.00 | 56 | 1017.8 |
| 20260502065359 | 44 | 277 | 0.9 | 0.9 | 0.00 | 0.00 | 0.00 | 56 | 1017.7 |
| 20260502064856 | 44 | 177 | 0.9 | 0.9 | 0.00 | 0.00 | 0.00 | 56 | 1017.6 |
| 20260502064354 | 45 | 164 | 0.9 | 0.9 | 0.00 | 0.00 | 0.00 | 55 | 1017.5 |
| 20260502063851 | 44 | 208 | 0.9 | 0.9 | 0.00 | 0.00 | 0.00 | 55 | 1017.8 |
| 20260502063349 | 44 | 160 | 0.9 | 0.9 | 0.00 | 0.00 | 0.00 | 56 | 1017.8 |
| 20260502062846 | 45 | 169 | 0.9 | 0.9 | 0.00 | 0.00 | 0.00 | 55 | 1017.7 |
| 20260502062343 | 45 | 251 | 1.7 | 1.7 | 0.00 | 0.00 | 0.00 | 55 | 1017.9 |
| 20260502061842 | 45 | 207 | 2.6 | 2.6 | 0.00 | 0.00 | 0.00 | 55 | 1017.9 |
| 20260502061340 | 45 | 166 | 0.0 | 0.9 | 0.00 | 0.00 | 0.00 | 55 | 1018.0 |
| 20260502060835 | 46 | 203 | 0.9 | 1.7 | 0.00 | 0.00 | 0.00 | 54 | 1017.8 |
| 20260502060330 | 46 | 209 | 2.6 | 2.6 | 0.00 | 0.00 | 0.00 | 53 | 1017.9 |
| 20260502055828 | 46 | 210 | 2.6 | 2.6 | 0.00 | 0.00 | 0.00 | 53 | 1018.0 |
| 20260502055326 | 47 | 225 | 2.6 | 2.6 | 0.00 | 0.00 | 0.00 | 52 | 1017.9 |
| 20260502054825 | 46 | 218 | 1.7 | 1.7 | 0.00 | 0.00 | 0.00 | 52 | 1017.7 |
| 20260502054323 | 46 | 164 | 0.9 | 0.9 | 0.00 | 0.00 | 0.00 | 52 | 1017.8 |
| 20260502053820 | 46 | 154 | 1.7 | 1.7 | 0.00 | 0.00 | 0.00 | 52 | 1018.0 |
| 20260502053317 | 46 | 181 | 1.7 | 1.7 | 0.00 | 0.00 | 0.00 | 52 | 1017.9 |
| 20260502052815 | 46 | 143 | 0.0 | 0.0 | 0.00 | 0.00 | 0.00 | 52 | 1018.0 |
| 20260502052313 | 46 | 176 | 0.9 | 0.9 | 0.00 | 0.00 | 0.00 | 52 | 1018.0 |
| 20260502051810 | 47 | 164 | 0.9 | 0.9 | 0.00 | 0.00 | 0.00 | 51 | 1018.1 |
| 20260502051309 | 47 | 174 | 0.9 | 1.7 | 0.00 | 0.00 | 0.00 | 51 | 1018.0 |
| 20260502050804 | 47 | 176 | 2.6 | 2.6 | 0.00 | 0.00 | 0.00 | 51 | 1018.1 |
| 20260502050301 | 46 | 147 | 0.0 | 0.9 | 0.00 | 0.00 | 0.00 | 52 | 1018.1 |
| 20260502045758 | 47 | 210 | 1.7 | 1.7 | 0.00 | 0.00 | 0.00 | 51 | 1018.1 |
| 20260502045255 | 47 | 175 | 0.9 | 0.9 | 0.00 | 0.00 | 0.00 | 51 | 1018.2 |
| 20260502044752 | 47 | 198 | 0.9 | 0.9 | 0.00 | 0.00 | 0.00 | 51 | 1018.5 |
| 20260502044248 | 48 | 162 | 0.9 | 0.9 | 0.00 | 0.00 | 0.00 | 50 | 1018.6 |
| 20260502043745 | 48 | 240 | 2.6 | 2.6 | 0.00 | 0.00 | 0.00 | 49 | 1018.3 |
| 20260502043243 | 48 | 153 | 0.9 | 1.7 | 0.00 | 0.00 | 0.00 | 49 | 1018.3 |
| 20260502042742 | 48 | 227 | 0.9 | 1.7 | 0.00 | 0.00 | 0.00 | 49 | 1018.3 |
| 20260502042240 | 49 | 184 | 1.7 | 1.7 | 0.00 | 0.00 | 0.00 | 49 | 1018.3 |
| 20260502041737 | 49 | 241 | 2.6 | 2.6 | 0.00 | 0.00 | 0.00 | 49 | 1018.6 |
| 20260502041234 | 49 | 237 | 0.9 | 1.7 | 0.00 | 0.00 | 0.00 | 49 | 1018.6 |
| 20260502040731 | 49 | 223 | 1.7 | 1.7 | 0.00 | 0.00 | 0.00 | 48 | 1018.3 |
| 20260502040228 | 49 | 216 | 1.7 | 1.7 | 0.00 | 0.00 | 0.00 | 48 | 1018.2 |
| 20260502035724 | 49 | 144 | 0.9 | 0.9 | 0.00 | 0.00 | 0.00 | 48 | 1018.5 |
| 20260502035221 | 50 | 178 | 0.9 | 1.7 | 0.00 | 0.00 | 0.00 | 47 | 1018.3 |
| 20260502034718 | 51 | 198 | 1.7 | 1.7 | 0.00 | 0.00 | 0.00 | 46 | 1018.2 |
| 20260502034217 | 51 | 234 | 3.5 | 4.3 | 0.00 | 0.00 | 0.00 | 45 | 1018.7 |
| 20260502033714 | 51 | 212 | 3.5 | 4.3 | 0.00 | 0.00 | 0.00 | 45 | 1018.5 |
| 20260502033212 | 51 | 218 | 2.6 | 2.6 | 0.00 | 0.00 | 0.00 | 46 | 1018.1 |
| 20260502032708 | 51 | 182 | 0.9 | 1.7 | 0.00 | 0.00 | 0.00 | 47 | 1018.6 |
| 20260502032204 | 51 | 194 | 2.6 | 4.3 | 0.00 | 0.00 | 0.00 | 46 | 1018.3 |
| 20260502031703 | 52 | 204 | 2.6 | 2.6 | 0.00 | 0.00 | 0.00 | 45 | 1018.6 |
| 20260502031200 | 52 | 170 | 2.6 | 2.6 | 0.00 | 0.00 | 0.00 | 45 | 1018.3 |
| 20260502030659 | 52 | 202 | 1.7 | 1.7 | 0.00 | 0.00 | 0.00 | 44 | 1018.3 |
| 20260502030156 | 52 | 194 | 2.6 | 2.6 | 0.00 | 0.00 | 0.00 | 44 | 1018.3 |
| 20260502025653 | 52 | 153 | 1.7 | 1.7 | 0.00 | 0.00 | 0.00 | 44 | 1018.3 |
| 20260502025151 | 52 | 146 | 0.9 | 0.9 | 0.00 | 0.00 | 0.00 | 44 | 1018.5 |
| 20260502024649 | 52 | 186 | 1.7 | 1.7 | 0.00 | 0.00 | 0.00 | 44 | 1018.2 |
| 20260502024147 | 52 | 179 | 1.7 | 2.6 | 0.00 | 0.00 | 0.00 | 44 | 1018.5 |
| 20260502023644 | 52 | 195 | 1.7 | 1.7 | 0.00 | 0.00 | 0.00 | 44 | 1018.3 |
| 20260502023141 | 52 | 117 | 0.0 | 0.0 | 0.00 | 0.00 | 0.00 | 43 | 1018.2 |
| 20260502022638 | 53 | 141 | 0.9 | 0.9 | 0.00 | 0.00 | 0.00 | 43 | 1018.2 |
| 20260502022135 | 53 | 157 | 0.9 | 0.9 | 0.00 | 0.00 | 0.00 | 42 | 1018.2 |
| 20260502021633 | 53 | 212 | 1.7 | 2.6 | 0.00 | 0.00 | 0.00 | 42 | 1018.2 |
| 20260502021130 | 54 | 210 | 2.6 | 2.6 | 0.00 | 0.00 | 0.00 | 42 | 1018.1 |
| 20260502020627 | 54 | 208 | 1.7 | 1.7 | 0.00 | 0.00 | 0.00 | 42 | 1018.0 |
| 20260502020124 | 54 | 191 | 0.9 | 0.9 | 0.00 | 0.00 | 0.00 | 42 | 1018.2 |
| 20260502015622 | 54 | 172 | 0.9 | 0.9 | 0.00 | 0.00 | 0.00 | 42 | 1018.2 |
| 20260502015118 | 55 | 202 | 1.7 | 1.7 | 0.00 | 0.00 | 0.00 | 42 | 1018.0 |
| 20260502014615 | 55 | 150 | 0.0 | 0.0 | 0.00 | 0.00 | 0.00 | 42 | 1018.2 |
| 20260502014112 | 56 | 182 | 0.9 | 0.9 | 0.00 | 0.00 | 0.00 | 42 | 1018.0 |
| 20260502013608 | 56 | 170 | 0.9 | 0.9 | 0.00 | 0.00 | 0.00 | 42 | 1018.0 |
| 20260502013104 | 57 | 180 | 0.9 | 1.7 | 0.00 | 0.00 | 0.00 | 41 | 1018.0 |
| 20260502012602 | 57 | 234 | 0.9 | 0.9 | 0.00 | 0.00 | 0.00 | 42 | 1018.2 |
| 20260502012100 | 58 | 175 | 0.9 | 0.9 | 0.00 | 0.00 | 0.00 | 42 | 1018.1 |
| 20260502011556 | 58 | 200 | 0.9 | 0.9 | 0.00 | 0.00 | 0.00 | 41 | 1018.1 |
| 20260502011052 | 59 | 228 | 1.7 | 1.7 | 0.00 | 0.00 | 0.00 | 40 | 1018.2 |
| 20260502010549 | 59 | 222 | 1.7 | 1.7 | 0.00 | 0.00 | 0.00 | 39 | 1018.1 |
| 20260502010045 | 59 | 214 | 1.7 | 1.7 | 0.00 | 0.00 | 0.00 | 40 | 1018.2 |
| 20260502005543 | 59 | 183 | 0.0 | 0.9 | 0.00 | 0.00 | 0.00 | 40 | 1018.2 |
| 20260502005041 | 59 | 252 | 0.9 | 0.9 | 0.00 | 0.00 | 0.00 | 40 | 1018.0 |
| 20260502004536 | 60 | 195 | 1.7 | 1.7 | 0.00 | 0.00 | 0.00 | 38 | 1018.1 |
| 20260502004033 | 61 | 262 | 2.6 | 4.3 | 0.00 | 0.00 | 0.00 | 38 | 1018.1 |
| 20260502003531 | 61 | 250 | 2.6 | 2.6 | 0.00 | 0.00 | 0.00 | 36 | 1018.0 |
| 20260502003028 | 62 | 247 | 2.6 | 4.3 | 0.00 | 0.00 | 0.00 | 37 | 1018.3 |
| 20260502002524 | 62 | 239 | 2.6 | 2.6 | 0.00 | 0.00 | 0.00 | 36 | 1018.5 |
| 20260502002022 | 62 | 247 | 1.7 | 1.7 | 0.00 | 0.00 | 0.00 | 35 | 1018.2 |
| 20260502001519 | 62 | 211 | 3.5 | 4.3 | 0.00 | 0.00 | 0.00 | 35 | 1018.3 |
| 20260502001016 | 62 | 300 | 4.3 | 5.2 | 0.00 | 0.00 | 0.00 | 35 | 1018.3 |
| 20260502000515 | 62 | 252 | 2.6 | 2.6 | 0.00 | 0.00 | 0.00 | 38 | 1018.3 |
| 20260502000011 | 62 | 238 | 6.1 | 8.7 | 0.00 | 0.00 | 0.00 | 36 | 1018.5 |
| 20260501235507 | 62 | 183 | 2.6 | 2.6 | 0.00 | 0.00 | 0.00 | 35 | 1018.6 |